QPF
0.00 0.00 0.00 0.00 0.01 0.01 0.01 0.01 0.00 0.00 0.00 0.00 0.00 0.00 0.00 0.00 0.00 0.00 0.00 0.00 0.00 0.00 0.00 0.00 0.00 0.00 0.01 0.01 0.01 0.01 0.00 0.00 0.00 0.00 0.00 0.00 0.00 0.00 0.00 0.00 0.00 0.00 0.00
0.00 0.00 0.01 0.01 0.01 0.01 0.01 0.00 0.00 0.00 0.00 0.00 0.00 0.00 0.00 0.00 0.00 0.00 0.00 0.00 0.00 0.00 0.00 0.00 0.00 0.00 0.01 0.02 0.02 0.03 0.02 0.02 0.01 0.00 0.00 0.00 0.00 0.00 0.00 0.00 0.00 0.00 0.00
0.00 0.00 0.01 0.01 0.00 0.00 0.00 0.00 0.00 0.00 0.00 0.00 0.00 0.00 0.00 0.00 0.00 0.00 0.00 0.00 0.00 0.00 0.00 0.00 0.00 0.00 0.01 0.01 0.02 0.03 0.04 0.04 0.04 0.02 0.01 0.01 0.00 0.01 0.01 0.01 0.01 0.01 0.01
0.00 0.00 0.00 0.00 0.00 0.00 0.00 0.00 0.00 0.00 0.00 0.00 0.00 0.00 0.00 0.00 0.00 0.00 0.00 0.00 0.00 0.00 0.00 0.00 0.00 0.00 0.00 0.01 0.01 0.02 0.04 0.05 0.06 0.06 0.05 0.04 0.03 0.02 0.02 0.02 0.02 0.03 0.02
0.00 0.00 0.00 0.00 0.00 0.00 0.00 0.00 0.00 0.00 0.00 0.00 0.00 0.00 0.00 0.00 0.00 0.00 0.00 0.00 0.00 0.00 0.00 0.00 0.00 0.00 0.01 0.01 0.01 0.03 0.05 0.08 0.10 0.11 0.12 0.11 0.11 0.10 0.09 0.08 0.07 0.06 0.05
0.00 0.00 0.00 0.00 0.00 0.00 0.00 0.00 0.00 0.00 0.00 0.00 0.00 0.00 0.00 0.00 0.00 0.00 0.00 0.00 0.00 0.00 0.00 0.00 0.00 0.00 0.00 0.02 0.05 0.07 0.08 0.10 0.13 0.15 0.16 0.16 0.17 0.17 0.18 0.19 0.17 0.14 0.11
0.00 0.00 0.00 0.00 0.00 0.00 0.00 0.00 0.00 0.00 0.00 0.00 0.00 0.00 0.00 0.00 0.00 0.00 0.00 0.00 0.00 0.00 0.00 0.00 0.00 0.01 0.03 0.05 0.08 0.08 0.08 0.08 0.11 0.15 0.17 0.17 0.19 0.22 0.25 0.26 0.25 0.24 0.21
0.00 0.00 0.00 0.00 0.00 0.00 0.00 0.00 0.00 0.00 0.00 0.00 0.00 0.00 0.00 0.00 0.00 0.00 0.00 0.00 0.00 0.00 0.00 0.00 0.01 0.02 0.04 0.06 0.06 0.06 0.05 0.05 0.06 0.09 0.13 0.14 0.15 0.18 0.22 0.24 0.26 0.27 0.28
0.00 0.00 0.00 0.00 0.00 0.00 0.00 0.00 0.00 0.00 0.00 0.00 0.00 0.00 0.00 0.00 0.00 0.00 0.00 0.00 0.00 0.00 0.00 0.00 0.00 0.00 0.00 0.01 0.01 0.01 0.01 0.02 0.02 0.03 0.06 0.09 0.11 0.14 0.17 0.21 0.24 0.27 0.29
0.00 0.00 0.00 0.00 0.00 0.00 0.00 0.00 0.00 0.00 0.00 0.00 0.00 0.00 0.00 0.00 0.00 0.00 0.00 0.00 0.00 0.00 0.00 0.00 0.00 0.00 0.00 0.00 0.00 0.00 0.02 0.04 0.04 0.06 0.10 0.13 0.16 0.19 0.24 0.28 0.32 0.36 0.40
0.00 0.00 0.00 0.00 0.00 0.00 0.00 0.00 0.00 0.00 0.00 0.00 0.00 0.00 0.00 0.00 0.00 0.00 0.00 0.00 0.00 0.00 0.00 0.00 0.00 0.00 0.00 0.00 0.00 0.02 0.04 0.05 0.06 0.08 0.10 0.13 0.19 0.26 0.30 0.35 0.40 0.50 0.61
0.00 0.00 0.00 0.00 0.00 0.00 0.00 0.00 0.00 0.00 0.00 0.00 0.00 0.00 0.00 0.00 0.00 0.00 0.00 0.00 0.00 0.00 0.00 0.00 0.00 0.00 0.00 0.00 0.01 0.02 0.01 0.01 0.01 0.01 0.04 0.10 0.15 0.18 0.20 0.25 0.32 0.44 0.61
0.00 0.00 0.00 0.00 0.00 0.00 0.00 0.00 0.00 0.00 0.00 0.00 0.00 0.00 0.00 0.00 0.00 0.00 0.00 0.00 0.00 0.00 0.00 0.00 0.00 0.00 0.00 0.00 0.00 0.00 0.00 0.00 0.00 0.00 0.01 0.03 0.03 0.05 0.05 0.04 0.07 0.13 0.22
0.00 0.00 0.00 0.00 0.00 0.00 0.00 0.00 0.00 0.00 0.00 0.00 0.00 0.00 0.00 0.00 0.00 0.00 0.00 0.00 0.00 0.00 0.00 0.00 0.00 0.00 0.00 0.00 0.00 0.00 0.00 0.00 0.00 0.00 0.00 0.00 0.00 0.01 0.01 0.02 0.03 0.04 0.07
0.00 0.00 0.00 0.00 0.00 0.00 0.00 0.00 0.00 0.00 0.00 0.00 0.00 0.00 0.00 0.00 0.00 0.00 0.00 0.00 0.00 0.00 0.00 0.00 0.00 0.00 0.00 0.00 0.00 0.00 0.00 0.00 0.00 0.00 0.00 0.00 0.00 0.00 0.01 0.01 0.01 0.01 0.01
0.00 0.00 0.00 0.00 0.00 0.00 0.00 0.00 0.00 0.00 0.00 0.00 0.00 0.00 0.00 0.00 0.00 0.00 0.00 0.00 0.00 0.00 0.00 0.00 0.00 0.00 0.00 0.00 0.00 0.00 0.00 0.00 0.00 0.00 0.00 0.00 0.00 0.00 0.00 0.01 0.01 0.01 0.01
0.00 0.00 0.00 0.00 0.00 0.00 0.00 0.00 0.00 0.00 0.00 0.00 0.00 0.00 0.00 0.00 0.00 0.00 0.00 0.00 0.00 0.00 0.00 0.00 0.00 0.00 0.00 0.00 0.00 0.00 0.00 0.00 0.00 0.00 0.00 0.00 0.01 0.01 0.01 0.01 0.01 0.01 0.01
0.00 0.00 0.00 0.00 0.00 0.00 0.00 0.00 0.00 0.00 0.00 0.00 0.00 0.00 0.00 0.00 0.00 0.00 0.00 0.00 0.00 0.00 0.00 0.01 0.00 0.00 0.00 0.00 0.00 0.00 0.00 0.00 0.00 0.00 0.00 0.01 0.01 0.01 0.01 0.01 0.02 0.03 0.03
0.00 0.00 0.00 0.00 0.00 0.00 0.00 0.00 0.00 0.00 0.00 0.00 0.00 0.00 0.00 0.00 0.00 0.00 0.00 0.00 0.00 0.00 0.01 0.01 0.01 0.00 0.00 0.00 0.00 0.00 0.00 0.00 0.00 0.00 0.00 0.00 0.00 0.01 0.03 0.04 0.05 0.06 0.06
0.00 0.00 0.00 0.00 0.00 0.00 0.00 0.00 0.00 0.00 0.00 0.00 0.00 0.00 0.00 0.00 0.00 0.00 0.00 0.00 0.00 0.01 0.01 0.01 0.02 0.01 0.01 0.00 0.00 0.00 0.00 0.00 0.00 0.00 0.00 0.01 0.03 0.05 0.06 0.06 0.05 0.03 0.02
0.00 0.00 0.00 0.00 0.00 0.00 0.00 0.00 0.00 0.00 0.00 0.00 0.00 0.00 0.00 0.00 0.00 0.00 0.00 0.01 0.02 0.02 0.03 0.04 0.04 0.03 0.02 0.01 0.01 0.00 0.00 0.00 0.00 0.01 0.02 0.03 0.03 0.02 0.01 0.01 0.01 0.01 0.02
0.00 0.00 0.00 0.00 0.00 0.00 0.00 0.00 0.00 0.00 0.00 0.00 0.00 0.00 0.00 0.00 0.00 0.00 0.01 0.02 0.03 0.04 0.05 0.07 0.07 0.04 0.02 0.01 0.00 0.01 0.02 0.03 0.02 0.01 0.03 0.01 0.01 0.00 0.00 0.01 0.01 0.03 0.04
0.00 0.00 0.00 0.00 0.00 0.00 0.00 0.00 0.00 0.00 0.00 0.00 0.00 0.00 0.00 0.00 0.00 0.00 0.00 0.02 0.03 0.04 0.05 0.04 0.02 0.01 0.01 0.01 0.02 0.03 0.03 0.03 0.02 0.01 0.03 0.02 0.01 0.02 0.01 0.01 0.02 0.03 0.03
0.00 0.00 0.00 0.00 0.00 0.00 0.00 0.00 0.00 0.00 0.00 0.00 0.00 0.00 0.00 0.00 0.00 0.01 0.02 0.04 0.03 0.01 0.01 0.00 0.01 0.01 0.02 0.02 0.03 0.03 0.03 0.03 0.02 0.02 0.03 0.04 0.02 0.02 0.01 0.01 0.01 0.02 0.03
0.00 0.00 0.00 0.00 0.00 0.00 0.00 0.00 0.00 0.00 0.00 0.00 0.00 0.00 0.00 0.00 0.01 0.04 0.04 0.04 0.01 0.00 0.00 0.01 0.02 0.02 0.02 0.01 0.01 0.02 0.05 0.07 0.05 0.02 0.01 0.03 0.02 0.02 0.01 0.01 0.01 0.02 0.03
0.00 0.00 0.00 0.00 0.00 0.00 0.00 0.00 0.00 0.00 0.00 0.00 0.00 0.00 0.01 0.01 0.03 0.05 0.03 0.01 0.01 0.01 0.01 0.01 0.01 0.00 0.00 0.00 0.01 0.02 0.05 0.10 0.08 0.04 0.01 0.03 0.04 0.04 0.05 0.01 0.01 0.01 0.01
MSLP
1012.03 1012.12 1012.16 1012.17 1012.17 1012.15 1012.12 1012.08 1012.00 1011.89 1011.72 1011.48 1011.20 1010.87 1010.51 1010.16 1009.82 1009.51 1009.25 1009.03 1008.84 1008.69 1008.56 1008.44 1008.34 1008.25 1008.16 1008.08 1008.01 1007.94 1007.87 1007.81 1007.75 1007.71 1007.68 1007.68 1007.71 1007.76 1007.84 1007.93 1008.05 1008.17 1008.31
1012.07 1012.17 1012.22 1012.25 1012.27 1012.27 1012.25 1012.20 1012.11 1011.97 1011.76 1011.48 1011.15 1010.77 1010.37 1009.97 1009.59 1009.23 1008.92 1008.64 1008.39 1008.18 1007.99 1007.82 1007.67 1007.53 1007.40 1007.28 1007.16 1007.05 1006.95 1006.85 1006.77 1006.71 1006.67 1006.65 1006.67 1006.71 1006.77 1006.84 1006.92 1007.02 1007.14
1012.27 1012.36 1012.42 1012.47 1012.51 1012.52 1012.51 1012.46 1012.35 1012.17 1011.93 1011.62 1011.25 1010.84 1010.41 1009.97 1009.54 1009.14 1008.77 1008.42 1008.11 1007.83 1007.57 1007.33 1007.12 1006.92 1006.73 1006.56 1006.39 1006.23 1006.07 1005.92 1005.79 1005.69 1005.61 1005.57 1005.55 1005.56 1005.59 1005.63 1005.69 1005.75 1005.84
1012.61 1012.69 1012.76 1012.82 1012.87 1012.90 1012.89 1012.83 1012.70 1012.50 1012.23 1011.90 1011.50 1011.07 1010.62 1010.16 1009.70 1009.26 1008.83 1008.42 1008.03 1007.67 1007.33 1007.03 1006.74 1006.48 1006.24 1006.01 1005.78 1005.55 1005.32 1005.11 1004.91 1004.74 1004.60 1004.49 1004.43 1004.39 1004.38 1004.38 1004.39 1004.41 1004.45
1013.05 1013.12 1013.19 1013.26 1013.32 1013.36 1013.36 1013.29 1013.16 1012.94 1012.66 1012.31 1011.90 1011.47 1011.01 1010.53 1010.05 1009.57 1009.09 1008.61 1008.15 1007.72 1007.31 1006.93 1006.58 1006.26 1005.96 1005.67 1005.38 1005.08 1004.78 1004.48 1004.19 1003.93 1003.70 1003.52 1003.38 1003.27 1003.20 1003.14 1003.09 1003.05 1003.04
1013.54 1013.61 1013.68 1013.75 1013.82 1013.87 1013.87 1013.81 1013.67 1013.45 1013.16 1012.81 1012.42 1011.98 1011.53 1011.05 1010.55 1010.03 1009.50 1008.97 1008.45 1007.94 1007.46 1007.02 1006.62 1006.25 1005.90 1005.56 1005.21 1004.85 1004.47 1004.08 1003.69 1003.33 1003.00 1002.72 1002.48 1002.29 1002.14 1002.01 1001.89 1001.78 1001.69
1014.03 1014.08 1014.15 1014.24 1014.32 1014.38 1014.38 1014.32 1014.19 1013.98 1013.70 1013.36 1012.98 1012.57 1012.12 1011.64 1011.13 1010.58 1010.01 1009.43 1008.84 1008.28 1007.74 1007.25 1006.81 1006.40 1006.02 1005.64 1005.25 1004.83 1004.38 1003.90 1003.42 1002.95 1002.51 1002.13 1001.79 1001.51 1001.27 1001.06 1000.87 1000.67 1000.49
1014.47 1014.51 1014.59 1014.68 1014.77 1014.83 1014.85 1014.80 1014.68 1014.48 1014.22 1013.90 1013.54 1013.15 1012.71 1012.23 1011.71 1011.14 1010.53 1009.90 1009.27 1008.66 1008.08 1007.55 1007.08 1006.66 1006.26 1005.85 1005.43 1004.97 1004.46 1003.91 1003.34 1002.78 1002.24 1001.76 1001.33 1000.96 1000.64 1000.35 1000.07 999.80 999.52
1014.83 1014.87 1014.95 1015.05 1015.15 1015.22 1015.24 1015.20 1015.09 1014.91 1014.67 1014.38 1014.04 1013.66 1013.23 1012.75 1012.22 1011.63 1010.99 1010.32 1009.65 1009.00 1008.40 1007.85 1007.36 1006.93 1006.52 1006.11 1005.66 1005.18 1004.63 1004.03 1003.39 1002.76 1002.14 1001.58 1001.07 1000.63 1000.24 999.88 999.53 999.18 998.81
1015.12 1015.17 1015.25 1015.35 1015.44 1015.52 1015.54 1015.51 1015.41 1015.24 1015.01 1014.73 1014.41 1014.04 1013.62 1013.14 1012.59 1011.99 1011.33 1010.63 1009.94 1009.26 1008.64 1008.08 1007.59 1007.15 1006.73 1006.32 1005.87 1005.36 1004.79 1004.16 1003.49 1002.81 1002.14 1001.53 1000.97 1000.47 1000.02 999.61 999.21 998.79 998.35
1015.37 1015.42 1015.50 1015.59 1015.68 1015.74 1015.76 1015.71 1015.61 1015.44 1015.22 1014.95 1014.63 1014.26 1013.84 1013.36 1012.81 1012.19 1011.51 1010.80 1010.09 1009.41 1008.78 1008.21 1007.71 1007.27 1006.85 1006.43 1005.97 1005.46 1004.88 1004.23 1003.55 1002.84 1002.16 1001.51 1000.92 1000.40 999.91 999.46 999.02 998.55 998.05
1015.61 1015.66 1015.72 1015.80 1015.86 1015.90 1015.89 1015.83 1015.71 1015.53 1015.30 1015.03 1014.70 1014.33 1013.91 1013.42 1012.86 1012.24 1011.56 1010.85 1010.14 1009.45 1008.81 1008.24 1007.73 1007.28 1006.85 1006.41 1005.95 1005.42 1004.84 1004.19 1003.50 1002.80 1002.11 1001.46 1000.86 1000.32 999.82 999.34 998.86 998.35 997.82
1015.87 1015.90 1015.94 1015.99 1016.02 1016.02 1015.97 1015.87 1015.72 1015.52 1015.27 1014.98 1014.65 1014.27 1013.84 1013.34 1012.79 1012.16 1011.49 1010.79 1010.09 1009.41 1008.77 1008.19 1007.67 1007.19 1006.73 1006.27 1005.78 1005.25 1004.65 1004.01 1003.33 1002.64 1001.96 1001.31 1000.71 1000.16 999.64 999.14 998.63 998.10 997.53
1016.13 1016.15 1016.17 1016.17 1016.15 1016.10 1016.00 1015.86 1015.67 1015.44 1015.16 1014.85 1014.50 1014.11 1013.67 1013.18 1012.62 1012.01 1011.35 1010.67 1009.98 1009.31 1008.67 1008.08 1007.53 1007.03 1006.53 1006.03 1005.51 1004.94 1004.34 1003.69 1003.02 1002.34 1001.67 1001.03 1000.43 999.87 999.32 998.79 998.25 997.69 997.10
1016.41 1016.40 1016.38 1016.33 1016.26 1016.15 1016.00 1015.81 1015.57 1015.30 1015.00 1014.67 1014.30 1013.90 1013.45 1012.96 1012.41 1011.81 1011.17 1010.51 1009.84 1009.18 1008.54 1007.94 1007.36 1006.81 1006.27 1005.72 1005.15 1004.55 1003.91 1003.26 1002.59 1001.91 1001.25 1000.62 1000.00 999.41 998.84 998.27 997.68 997.09 996.47
1016.67 1016.63 1016.56 1016.46 1016.33 1016.16 1015.95 1015.71 1015.43 1015.13 1014.80 1014.45 1014.07 1013.66 1013.21 1012.71 1012.17 1011.59 1010.97 1010.33 1009.68 1009.02 1008.38 1007.76 1007.15 1006.56 1005.96 1005.35 1004.73 1004.08 1003.42 1002.74 1002.06 1001.39 1000.72 1000.07 999.44 998.82 998.20 997.57 996.94 996.30 995.65
1016.88 1016.81 1016.69 1016.53 1016.34 1016.11 1015.85 1015.57 1015.26 1014.93 1014.58 1014.22 1013.83 1013.41 1012.95 1012.46 1011.92 1011.35 1010.75 1010.12 1009.48 1008.83 1008.18 1007.54 1006.90 1006.26 1005.61 1004.95 1004.28 1003.59 1002.88 1002.18 1001.48 1000.79 1000.10 999.43 998.77 998.10 997.43 996.75 996.07 995.38 994.69
1017.02 1016.91 1016.74 1016.53 1016.27 1016.00 1015.69 1015.37 1015.04 1014.70 1014.34 1013.96 1013.57 1013.14 1012.68 1012.18 1011.65 1011.07 1010.47 1009.85 1009.22 1008.57 1007.92 1007.26 1006.60 1005.92 1005.23 1004.52 1003.80 1003.06 1002.32 1001.58 1000.86 1000.14 999.43 998.73 998.03 997.33 996.61 995.88 995.14 994.41 993.69
1017.09 1016.92 1016.70 1016.43 1016.13 1015.81 1015.47 1015.12 1014.77 1014.42 1014.06 1013.68 1013.28 1012.85 1012.38 1011.87 1011.32 1010.74 1010.13 1009.50 1008.87 1008.22 1007.57 1006.90 1006.22 1005.52 1004.80 1004.05 1003.29 1002.52 1001.74 1000.97 1000.21 999.47 998.73 998.01 997.27 996.53 995.78 995.01 994.23 993.47 992.73
1017.07 1016.85 1016.58 1016.26 1015.91 1015.55 1015.18 1014.82 1014.46 1014.10 1013.74 1013.36 1012.95 1012.51 1012.02 1011.49 1010.92 1010.32 1009.70 1009.06 1008.41 1007.77 1007.11 1006.44 1005.76 1005.04 1004.31 1003.54 1002.75 1001.95 1001.14 1000.34 999.55 998.78 998.02 997.26 996.51 995.74 994.97 994.18 993.39 992.62 991.86
1016.99 1016.73 1016.41 1016.04 1015.65 1015.25 1014.86 1014.48 1014.11 1013.75 1013.38 1012.99 1012.57 1012.11 1011.60 1011.04 1010.44 1009.81 1009.16 1008.51 1007.86 1007.21 1006.55 1005.89 1005.21 1004.50 1003.76 1002.98 1002.18 1001.35 1000.52 999.69 998.87 998.07 997.28 996.51 995.75 994.98 994.20 993.42 992.63 991.85 991.10
1016.88 1016.57 1016.20 1015.79 1015.37 1014.94 1014.52 1014.12 1013.74 1013.36 1012.98 1012.58 1012.14 1011.65 1011.11 1010.52 1009.89 1009.22 1008.55 1007.88 1007.21 1006.56 1005.91 1005.26 1004.60 1003.90 1003.16 1002.39 1001.57 1000.73 999.87 999.01 998.16 997.33 996.53 995.75 994.98 994.22 993.46 992.69 991.92 991.16 990.41
1016.76 1016.41 1016.00 1015.56 1015.09 1014.63 1014.19 1013.77 1013.36 1012.97 1012.57 1012.15 1011.68 1011.16 1010.58 1009.95 1009.27 1008.58 1007.88 1007.19 1006.52 1005.87 1005.23 1004.59 1003.94 1003.26 1002.53 1001.76 1000.93 1000.07 999.19 998.30 997.42 996.57 995.75 994.96 994.20 993.45 992.71 991.97 991.22 990.47 989.72
1016.64 1016.26 1015.82 1015.35 1014.86 1014.37 1013.89 1013.44 1013.01 1012.59 1012.16 1011.70 1011.20 1010.64 1010.02 1009.35 1008.64 1007.91 1007.19 1006.49 1005.81 1005.16 1004.53 1003.91 1003.28 1002.61 1001.88 1001.10 1000.27 999.39 998.47 997.55 996.65 995.77 994.93 994.14 993.38 992.65 991.93 991.21 990.48 989.73 988.97
1016.52 1016.13 1015.67 1015.18 1014.66 1014.14 1013.64 1013.16 1012.70 1012.24 1011.77 1011.27 1010.73 1010.12 1009.46 1008.76 1008.02 1007.27 1006.53 1005.81 1005.13 1004.49 1003.87 1003.25 1002.62 1001.95 1001.23 1000.44 999.58 998.67 997.73 996.78 995.84 994.94 994.09 993.29 992.54 991.82 991.12 990.41 989.67 988.91 988.12
1016.42 1016.01 1015.54 1015.03 1014.50 1013.96 1013.43 1012.92 1012.42 1011.93 1011.41 1010.87 1010.28 1009.63 1008.94 1008.20 1007.44 1006.67 1005.92 1005.20 1004.52 1003.87 1003.25 1002.64 1002.00 1001.32 1000.58 999.77 998.89 997.95 996.97 995.99 995.02 994.10 993.24 992.44 991.69 990.97 990.27 989.56 988.82 988.03 987.19
Thickness
5697 5695 5693 5691 5689 5688 5686 5685 5683 5683 5683 5683 5684 5684 5684 5684 5684 5684 5684 5685 5685 5684 5682 5681 5679 5677 5676 5674 5674 5673 5671 5670 5669 5668 5668 5667 5666 5665 5664 5662 5661 5660 5659
5691 5688 5686 5683 5681 5679 5678 5677 5675 5674 5674 5674 5675 5676 5677 5677 5677 5676 5677 5679 5681 5681 5680 5678 5676 5674 5672 5670 5669 5669 5668 5667 5665 5664 5662 5661 5661 5660 5659 5658 5657 5655 5654
5685 5682 5678 5675 5672 5671 5669 5667 5665 5665 5665 5666 5667 5669 5669 5668 5668 5669 5670 5672 5673 5674 5675 5673 5671 5670 5668 5665 5664 5662 5661 5660 5659 5658 5658 5657 5656 5654 5653 5653 5652 5651 5649
5677 5674 5669 5665 5663 5661 5658 5656 5654 5653 5653 5654 5657 5658 5658 5659 5659 5661 5662 5663 5664 5665 5665 5664 5663 5662 5660 5659 5657 5655 5654 5652 5651 5650 5649 5649 5649 5648 5648 5647 5647 5646 5646
5667 5664 5659 5655 5653 5651 5647 5645 5644 5643 5643 5644 5645 5646 5646 5647 5649 5650 5650 5650 5649 5649 5650 5649 5649 5649 5649 5648 5646 5643 5639 5638 5638 5637 5638 5638 5638 5638 5638 5638 5639 5640 5640
5655 5652 5649 5645 5642 5639 5636 5634 5632 5630 5629 5629 5630 5632 5634 5637 5638 5636 5635 5635 5635 5635 5634 5633 5631 5630 5630 5629 5627 5625 5622 5622 5621 5620 5620 5621 5623 5624 5625 5627 5629 5631 5632
5644 5641 5637 5634 5631 5628 5624 5621 5619 5617 5615 5614 5615 5617 5621 5623 5622 5620 5617 5616 5616 5616 5614 5612 5611 5609 5607 5605 5603 5602 5602 5603 5603 5602 5603 5604 5606 5607 5609 5612 5615 5619 5622
5633 5630 5626 5622 5619 5616 5612 5609 5606 5603 5601 5600 5597 5598 5600 5605 5606 5600 5600 5598 5597 5596 5594 5593 5590 5587 5584 5581 5578 5576 5576 5578 5580 5582 5582 5583 5582 5584 5587 5591 5596 5601 5607
5622 5618 5615 5611 5607 5604 5600 5597 5593 5590 5587 5585 5581 5575 5570 5572 5580 5586 5583 5581 5579 5575 5572 5569 5566 5563 5559 5556 5553 5549 5547 5547 5548 5551 5553 5555 5555 5556 5558 5563 5569 5575 5583
5610 5607 5604 5601 5597 5593 5588 5584 5581 5577 5572 5568 5565 5559 5552 5549 5548 5556 5560 5558 5555 5552 5548 5546 5541 5536 5532 5528 5524 5521 5518 5517 5516 5516 5519 5521 5524 5526 5528 5531 5536 5542 5549
5600 5596 5594 5590 5586 5581 5576 5572 5568 5563 5558 5553 5548 5543 5539 5533 5529 5528 5535 5536 5533 5529 5524 5519 5512 5507 5501 5495 5491 5488 5484 5481 5480 5479 5481 5483 5486 5488 5492 5496 5501 5508 5517
5591 5586 5583 5580 5576 5570 5565 5559 5554 5548 5543 5538 5532 5526 5520 5514 5509 5506 5509 5514 5513 5510 5501 5494 5485 5478 5470 5462 5456 5452 5448 5444 5440 5439 5441 5444 5445 5446 5450 5459 5468 5478 5489
5581 5576 5573 5568 5563 5558 5552 5546 5539 5533 5528 5523 5517 5511 5505 5497 5491 5485 5482 5485 5489 5491 5482 5473 5460 5450 5440 5429 5422 5416 5412 5409 5405 5402 5403 5405 5408 5411 5417 5426 5435 5446 5458
5571 5567 5562 5556 5550 5544 5538 5531 5525 5519 5513 5506 5500 5493 5487 5481 5474 5466 5457 5451 5454 5463 5461 5452 5438 5422 5410 5397 5387 5380 5377 5376 5373 5372 5373 5374 5377 5382 5389 5397 5406 5416 5427
5561 5554 5549 5543 5537 5530 5524 5517 5510 5503 5496 5489 5483 5477 5471 5466 5458 5448 5436 5422 5410 5414 5429 5424 5409 5396 5381 5368 5358 5351 5349 5347 5347 5348 5348 5350 5354 5360 5366 5373 5380 5390 5402
5548 5542 5536 5529 5522 5515 5508 5501 5494 5487 5480 5474 5468 5461 5455 5447 5438 5426 5414 5400 5382 5368 5376 5386 5377 5369 5357 5345 5335 5327 5322 5321 5323 5325 5326 5329 5334 5341 5347 5354 5361 5369 5380
5534 5527 5521 5514 5506 5500 5493 5486 5479 5472 5466 5460 5452 5444 5436 5425 5416 5403 5390 5376 5361 5345 5338 5350 5345 5338 5330 5323 5319 5311 5304 5302 5303 5306 5308 5311 5315 5321 5329 5335 5342 5351 5361
5520 5513 5507 5499 5492 5486 5479 5472 5466 5459 5452 5443 5432 5422 5413 5402 5391 5377 5364 5352 5340 5327 5315 5316 5322 5315 5310 5304 5301 5297 5292 5289 5288 5289 5289 5291 5295 5300 5307 5314 5322 5331 5341
5506 5499 5492 5485 5478 5472 5466 5459 5453 5445 5434 5422 5411 5399 5389 5378 5367 5354 5342 5331 5321 5314 5303 5295 5298 5296 5293 5288 5285 5284 5281 5279 5276 5272 5271 5273 5275 5279 5285 5294 5302 5311 5320
5493 5486 5478 5472 5465 5459 5453 5445 5438 5428 5416 5403 5389 5376 5365 5354 5344 5333 5325 5316 5307 5298 5290 5282 5279 5278 5275 5274 5269 5267 5269 5268 5265 5258 5256 5256 5257 5261 5267 5274 5282 5291 5301
5480 5473 5466 5459 5452 5445 5438 5430 5420 5410 5397 5383 5369 5355 5344 5334 5325 5317 5310 5301 5291 5283 5275 5267 5263 5261 5260 5255 5250 5248 5250 5253 5255 5245 5242 5246 5243 5248 5254 5258 5265 5273 5283
5467 5460 5453 5446 5438 5430 5422 5412 5401 5390 5375 5360 5348 5338 5328 5318 5310 5304 5296 5288 5280 5270 5260 5250 5247 5245 5244 5241 5238 5235 5234 5235 5243 5240 5231 5239 5237 5242 5246 5250 5256 5262 5270
5454 5447 5440 5432 5424 5414 5405 5395 5382 5369 5354 5338 5326 5318 5312 5303 5293 5287 5283 5278 5270 5261 5249 5238 5234 5233 5232 5230 5226 5227 5227 5227 5230 5230 5227 5237 5238 5240 5243 5247 5251 5255 5262
5441 5434 5427 5419 5410 5399 5388 5376 5364 5349 5334 5319 5307 5298 5293 5288 5280 5274 5270 5263 5257 5249 5238 5233 5229 5226 5224 5223 5221 5221 5222 5225 5229 5227 5227 5234 5240 5242 5247 5249 5250 5254 5261
5429 5421 5413 5404 5394 5383 5370 5357 5343 5329 5316 5304 5294 5286 5278 5274 5270 5264 5255 5249 5246 5241 5236 5231 5226 5223 5222 5221 5218 5218 5219 5221 5229 5231 5228 5232 5241 5246 5252 5255 5257 5261 5269
5415 5408 5399 5387 5376 5365 5352 5337 5321 5308 5299 5293 5285 5276 5268 5262 5258 5251 5242 5237 5234 5233 5232 5229 5225 5222 5221 5219 5219 5217 5216 5219 5226 5232 5232 5234 5244 5249 5260 5265 5268 5270 5275